Regional Weather Roundup
Issued by NWS

Home | Current Version | Previous Version | Graphics & Text | Print | Product List | Glossary On
Versions: 1 2 3 4 5 6 7 8 9 10 11 12 13 14 15 16 17 18 19 20 21 22 23 24 25 26 27 28 29 30 31 32 33 34 35 36 37 38 39 40 41 42 43 44 45 46 47 48 49 50
000
ASUS43 KOAX 280202
RWRNE

WEATHER ROUNDUP FOR NEBRASKA
NATIONAL WEATHER SERVICE OMAHA NE
900 PM CDT TUE JUN 27 2017

NOTES: SATELLITE DATA IS BEING USED TO AUGMENT CLOUD COVER ABOVE
       12000 FEET.
       "FAIR" INDICATES FEW OR NO CLOUDS BELOW 12,000 FEET WITH NO
       SIGNIFICANT WEATHER AND/OR OBSTRUCTIONS TO VISIBILITY.

  * THESE STATIONS DO NOT REPORT WEATHER SUCH AS RAIN...SNOW OR FOG.

NEZ001>004-019>022-054>056-280300-
NEBRASKA PANHANDLE

CITY           SKY/WX    TMP DP  RH WIND       PRES   REMARKS
SCOTTSBLUFF    TSTM      69  58  67 NW25G36   29.78
ALLIANCE       CLOUDY    75  54  47 NE10      29.71F
CHADRON        CLOUDY    68  62  81 E5        29.75R
SIDNEY         LGT RAIN  67  58  72 NW17      29.78R
$$

NEZ057>060-069>072-079>082-280300-
SOUTHWEST NEBRASKA

CITY           SKY/WX    TMP DP  RH WIND       PRES   REMARKS
NORTH PLATTE   TSTM      65  62  90 NW18G46   29.77R FOG
IMPERIAL       CLOUDY    80  48  32 NE9       29.70F
MCCOOK         MOCLDY    87  58  37 S17G25    29.64R
$$

NEZ005>010-023>029-035>040-094-280300-
NORTH CENTRAL NEBRASKA

CITY           SKY/WX    TMP DP  RH WIND       PRES   REMARKS
VALENTINE      CLOUDY    79  60  52 W6        29.67R
BROKEN BOW     CLOUDY    81  68  64 SE13G23   29.65F
ORD            MOCLDY    80  66  62 SE14      29.65F
$$

NEZ041-046>049-061>064-073>077-083>087-280300-
SOUTH CENTRAL NEBRASKA

CITY           SKY/WX    TMP DP  RH WIND       PRES   REMARKS
GRAND ISLAND   CLOUDY    79  71  76 SE24      29.69F
HASTINGS       PTCLDY    80  70  71 SE16      29.70F
KEARNEY *      CLOUDY    81  68  65 SE14      29.68F
$$

NEZ011>018-030>034-042>045-280300-
NORTHEAST NEBRASKA

CITY           SKY/WX    TMP DP  RH WIND       PRES   REMARKS
NORFOLK        PTCLDY    76  65  68 SE16      29.70F
TEKAMAH        MOCLDY    77  63  61 SE18G28   29.77R
$$

NEZ050>053-065>068-078-088>093-280300-
SOUTHEAST NEBRASKA

CITY           SKY/WX    TMP DP  RH WIND       PRES   REMARKS
LINCOLN        PTCLDY    78  67  68 S17G28    29.74F
OMAHA EPPLEY   CLOUDY    78  64  61 SE18      29.78F
FALLS CITY     CLEAR     76  66  71 SE15      29.82F
$$

NEZ044-045-051>053-067-280300-
OMAHA AREA

CITY           SKY/WX    TMP DP  RH WIND       PRES   REMARKS
OMAHA EPPLEY   CLOUDY    78  64  61 SE18      29.78F
OFFUTT AFB     MOCLDY    77  65  66 SE15G23   29.77F
$$




USA.gov is the U.S. government's official web portal to all federal, state and local government web resources and services.